COSMOS 2180

导读

COSMOS 2180是独立国家联合体(CIS)于1992年2月17日发射的军用卫星,隶属于俄罗斯“宇宙”(COSMOS)系列卫星。该系列卫星多承担军事侦察、空间环境探测等任务,作为苏联解体后独联体早期航天活动的产物,延续了苏联宇宙卫星系列的航天探索传统,具体任务细节与轨道参数未公开,目前已完成使命脱离轨道。

基本信息
目录编号:
21875
目录名称:
COSMOS 2180
国际标识:
1992-008A
轨道中心:
EARTH
卫星名称:
COSMOS 2180
卫星全名:
--
卫星状态:
在轨 (已飞行12534 天)
发射日期:
1992-02-17 UTC
国别 :
俄罗斯(独联体) (CIS)
星等 :
--
轨道信息
数据来源 国际轨道数据 AOE轨道数据
星历时间 2026-06-12T15:32:41+0800
12小时前
查看轨道信息
2026-06-13T00:00:00+0800
3小时前
查看轨道信息
半长轴 7363.514km 7363.509km
偏心率 0.003711 0.003682
轨道倾角 82.927° 82.927°
近地点辐角 347.139° 346.305°
升交点赤经 225.116° 224.854°
平近点角 84.490° 26.905°
近地点 958.05km 958.259km
远地点 1012.704km 1012.485km
周期 104.806分钟 104.806分钟
每日圈数 13.739633 13.739647
详细信息
使用方式:
暂无
2D轨道图
3D轨道图
轨道高度分析图
轨道倾角分析图
轨道综合分析图
查看轨道综合分析图